Miscellaneous Local Product
Issued by NWS Hastings, NE

Home | Current Version | Previous Version | Graphics & Text | Print | Product List | Glossary On
Versions: 1 2 3 4 5 6 7 8 9 10 11 12 13 14 15 16 17 18 19 20 21 22 23 24 25 26 27 28 29 30 31 32 33 34 35 36 37 38 39 40 41 42 43 44 45 46 47 48 49 50
000
AXUS43 KGID 230402
MISGRI

GID CWA HOURLY WEATHER ROUNDUP
NATIONAL WEATHER SERVICE HASTINGS NE
1000 PM CST WED NOV 22 2017

NOTE: "FAIR" INDICATES FEW OR NO CLOUDS BELOW 12,000 FEET WITH NO
SIGNIFICANT WEATHER AND/OR OBSTRUCTIONS TO VISIBILITY.

...SOUTH CENTRAL NEBRASKA...

CITY           SKY/WX    TMP DP  RH WIND       PRES   REMARKS
GRAND ISLAND   CLOUDY    43  29  57 SW8       30.06S
KEARNEY        CLOUDY    47  32  56 W8        30.06F
HASTINGS       CLOUDY    44  26  49 SW9       30.06F
ORD            CLEAR     33  28  81 CALM      30.03S
YORK           PTCLDY    39  23  52 SW10      30.05F WCI  32
AURORA         CLEAR     40  23  50 SW9       30.05S WCI  34
LEXINGTON      CLEAR     39  32  76 W6        30.08R WCI  35
HOLDREGE       CLEAR     48  34  57 SW3       30.07S
HEBRON         PTCLDY    42  22  45 SW8       30.08F

...NEBRASKA PANHANDLE...

CITY           SKY/WX    TMP DP  RH WIND       PRES   REMARKS
CHADRON        CLOUDY    44  36  73 SW6       30.13R
ALLIANCE       CLOUDY    40  36  86 W12       30.15R WCI  33
SCOTTSBLUFF    CLEAR     43  36  76 N8        30.19R
SIDNEY         CLEAR     43  36  76 W9        30.19R

...WESTERN AND NORTH CENTRAL NEBRASKA...

CITY           SKY/WX    TMP DP  RH WIND       PRES   REMARKS
VALENTINE      CLEAR     44  35  70 W5        30.05R
AINSWORTH      CLEAR     44  36  72 W6        30.04R
ONEILL         CLEAR     44  36  73 W7        30.00R
BROKEN BOW     CLOUDY    36  29  75 NW3       30.06R
IMPERIAL       CLEAR     49  37  63 W9        30.12F
NORTH PLATTE   CLEAR     36  32  85 NW5       30.09S WCI  32
MCCOOK         CLEAR     43  36  76 SW6       30.09S

...EASTERN NEBRASKA...

CITY           SKY/WX    TMP DP  RH WIND       PRES   REMARKS
NORFOLK        CLOUDY    44  27  51 SW9       29.99S
SO SIOUX CITY  CLEAR     30  20  66 SE8       29.99F WCI  22
TEKAMAH        CLEAR     33  19  56 SE7       30.03S WCI  27
COLUMBUS       CLOUDY    42  24  49 SW8       30.03F
ALBION         CLEAR     47  31  52 CALM      30.01S
OMAHA EPPLEY   CLEAR     35  20  54 SE10      30.05F WCI  27
OFFUTT AFB     CLEAR     34  19  55 S3        30.05F
MILLARD        CLEAR     38  22  52 CALM      30.05F
LINCOLN        CLEAR     40  21  46 S8        30.05F WCI  34
NEBRASKA CITY  PTCLDY    36  20  52 S14       30.06F WCI  27
BEATRICE       PTCLDY    41  22  47 S12       30.08F
FALLS CITY     CLEAR     36  18  48 S10       30.10F WCI  28

...NORTHERN KANSAS...

CITY           SKY/WX    TMP DP  RH WIND       PRES   REMARKS
GOODLAND       CLOUDY    44  34  67 W9        30.17R
HILL CITY      CLEAR     48  35  60 W7        30.10S
NORTON         CLEAR     43  28  56 SW9       30.08R
PHILLIPSBURG   CLEAR     37  28  70 CALM      30.08S
SMITH CENTER   CLEAR     36  25  64 E6        30.09S WCI  31
HAYS           CLEAR     43  29  57 SW7       30.11S
RUSSELL        CLEAR     43  23  45 S14       30.09F
CONCORDIA      PTCLDY    41  21  44 S17G24    30.09F
SALINA         CLEAR     41  21  44 S10       30.14F
TOPEKA         PTCLDY    38  20  48 S5        30.16F WCI  34



USA.gov is the U.S. government's official web portal to all federal, state and local government web resources and services.